Year,Month,Day,Hour,Minute,Value (Times are PST for temperature in C)
2019,10,31,00,00,0.40
2019,10,31,00,01,0.40
2019,10,31,00,02,0.40
2019,10,31,00,03,0.40
2019,10,31,00,04,0.40
2019,10,31,00,05,0.40
2019,10,31,00,06,0.40
2019,10,31,00,07,0.40
2019,10,31,00,08,0.40
2019,10,31,00,09,0.40
2019,10,31,00,10,0.40
2019,10,31,00,11,0.40
2019,10,31,00,12,0.30
2019,10,31,00,13,0.30
2019,10,31,00,14,0.30
2019,10,31,00,15,0.30
2019,10,31,00,16,0.30
2019,10,31,00,17,0.30
2019,10,31,00,18,0.20
2019,10,31,00,19,0.20
2019,10,31,00,20,0.20
2019,10,31,00,21,0.20
2019,10,31,00,22,0.20
2019,10,31,00,23,0.20
2019,10,31,00,24,0.20
2019,10,31,00,25,0.20
2019,10,31,00,26,0.20
2019,10,31,00,27,0.20
2019,10,31,00,28,0.20
2019,10,31,00,29,0.20
2019,10,31,00,30,0.20
2019,10,31,00,31,0.20
2019,10,31,00,32,0.20
2019,10,31,00,33,0.30
2019,10,31,00,34,0.30
2019,10,31,00,35,0.30
2019,10,31,00,36,0.30
2019,10,31,00,37,0.30
2019,10,31,00,38,0.30
2019,10,31,00,39,0.30
2019,10,31,00,40,0.40
2019,10,31,00,41,0.40
2019,10,31,00,42,0.40
2019,10,31,00,43,0.40
2019,10,31,00,44,0.40
2019,10,31,00,45,0.40
2019,10,31,00,46,0.40
2019,10,31,00,47,0.40
2019,10,31,00,48,0.40
2019,10,31,00,49,0.40
2019,10,31,00,50,0.40
2019,10,31,00,51,0.40
2019,10,31,00,52,0.40
2019,10,31,00,53,0.40
2019,10,31,00,54,0.40
2019,10,31,00,55,0.40
2019,10,31,00,56,0.40
2019,10,31,00,57,0.40
2019,10,31,00,58,0.40
2019,10,31,00,59,0.40
2019,10,31,01,00,0.40
2019,10,31,01,01,0.40
2019,10,31,01,02,0.40
2019,10,31,01,03,0.40
2019,10,31,01,04,0.50
2019,10,31,01,05,0.50
2019,10,31,01,06,0.60
2019,10,31,01,07,0.60
2019,10,31,01,08,0.60
2019,10,31,01,09,0.60
2019,10,31,01,10,0.60
2019,10,31,01,11,0.70
2019,10,31,01,12,0.70
2019,10,31,01,13,0.70
2019,10,31,01,14,0.70
2019,10,31,01,15,0.70
2019,10,31,01,16,0.70
2019,10,31,01,17,0.80
2019,10,31,01,18,0.80
2019,10,31,01,19,0.80
2019,10,31,01,20,0.80
2019,10,31,01,21,0.80
2019,10,31,01,22,0.80
2019,10,31,01,23,0.80
2019,10,31,01,24,0.80
2019,10,31,01,25,0.80
2019,10,31,01,26,0.80
2019,10,31,01,27,0.80
2019,10,31,01,28,0.80
2019,10,31,01,29,0.80
2019,10,31,01,30,0.80
2019,10,31,01,31,0.80
2019,10,31,01,32,0.80
2019,10,31,01,33,0.80
2019,10,31,01,34,0.80
2019,10,31,01,35,0.80
2019,10,31,01,36,0.70
2019,10,31,01,37,0.70
2019,10,31,01,38,0.70
2019,10,31,01,39,0.70
2019,10,31,01,40,0.70
2019,10,31,01,41,0.70
2019,10,31,01,42,0.60
2019,10,31,01,43,0.60
2019,10,31,01,44,0.70
2019,10,31,01,45,0.70
2019,10,31,01,46,0.70
2019,10,31,01,47,0.70
2019,10,31,01,48,0.70
2019,10,31,01,49,0.70
2019,10,31,01,50,0.70
2019,10,31,01,51,0.70
2019,10,31,01,52,0.70
2019,10,31,01,53,0.70
2019,10,31,01,54,0.80
2019,10,31,01,55,0.80
2019,10,31,01,56,0.80
2019,10,31,01,57,0.80
2019,10,31,01,58,0.80
2019,10,31,01,59,0.80
2019,10,31,02,00,0.80
2019,10,31,02,01,0.80
2019,10,31,02,02,0.80
2019,10,31,02,03,0.80
2019,10,31,02,04,0.80
2019,10,31,02,05,0.80
2019,10,31,02,06,0.90
2019,10,31,02,07,0.90
2019,10,31,02,08,0.90
2019,10,31,02,09,0.90
2019,10,31,02,10,0.90
2019,10,31,02,11,0.90
2019,10,31,02,12,0.90
2019,10,31,02,13,0.90
2019,10,31,02,14,0.90
2019,10,31,02,15,0.90
2019,10,31,02,16,0.90
2019,10,31,02,17,0.90
2019,10,31,02,18,1.00
2019,10,31,02,19,1.00
2019,10,31,02,20,1.00
2019,10,31,02,21,1.10
2019,10,31,02,22,1.10
2019,10,31,02,23,1.10
2019,10,31,02,24,1.10
2019,10,31,02,25,1.10
2019,10,31,02,26,1.20
2019,10,31,02,27,1.20
2019,10,31,02,28,1.20
2019,10,31,02,29,1.20
2019,10,31,02,30,1.20
2019,10,31,02,31,1.30
2019,10,31,02,32,1.30
2019,10,31,02,33,1.30
2019,10,31,02,34,1.30
2019,10,31,02,35,1.30
2019,10,31,02,36,1.30
2019,10,31,02,37,1.40
2019,10,31,02,38,1.40
2019,10,31,02,39,1.40
2019,10,31,02,40,1.40
2019,10,31,02,41,1.40
2019,10,31,02,42,1.40
2019,10,31,02,43,1.50
2019,10,31,02,44,1.50
2019,10,31,02,45,1.50
2019,10,31,02,46,1.50
2019,10,31,02,47,1.50
2019,10,31,02,48,1.60
2019,10,31,02,49,1.60
2019,10,31,02,50,1.50
2019,10,31,02,51,1.50
2019,10,31,02,52,1.50
2019,10,31,02,53,1.50
2019,10,31,02,54,1.50
2019,10,31,02,55,1.40
2019,10,31,02,56,1.40
2019,10,31,02,57,1.40
2019,10,31,02,58,1.40
2019,10,31,02,59,1.40
2019,10,31,03,00,1.50
2019,10,31,03,01,1.50
2019,10,31,03,02,1.50
2019,10,31,03,03,1.50
2019,10,31,03,04,1.50
2019,10,31,03,05,1.50
2019,10,31,03,06,1.50
2019,10,31,03,07,1.50
2019,10,31,03,08,1.40
2019,10,31,03,09,1.40
2019,10,31,03,10,1.40
2019,10,31,03,11,1.40
2019,10,31,03,12,1.40
2019,10,31,03,13,1.40
2019,10,31,03,14,1.40
2019,10,31,03,15,1.50
2019,10,31,03,16,1.50
2019,10,31,03,17,1.50
2019,10,31,03,18,1.50
2019,10,31,03,19,1.50
2019,10,31,03,20,1.60
2019,10,31,03,21,1.60
2019,10,31,03,22,1.60
2019,10,31,03,23,1.60
2019,10,31,03,24,1.60
2019,10,31,03,25,1.60
2019,10,31,03,26,1.60
2019,10,31,03,27,1.60
2019,10,31,03,28,1.60
2019,10,31,03,29,1.60
2019,10,31,03,30,1.60
2019,10,31,03,31,1.60
2019,10,31,03,32,1.60
2019,10,31,03,33,1.60
2019,10,31,03,34,1.60
2019,10,31,03,35,1.60
2019,10,31,03,36,1.60
2019,10,31,03,37,1.60
2019,10,31,03,38,1.60
2019,10,31,03,39,1.60
2019,10,31,03,40,1.60
2019,10,31,03,41,1.60
2019,10,31,03,42,1.60
2019,10,31,03,43,1.60
2019,10,31,03,44,1.60
2019,10,31,03,45,1.60
2019,10,31,03,46,1.60
2019,10,31,03,47,1.60
2019,10,31,03,48,1.60
2019,10,31,03,49,1.60
2019,10,31,03,50,1.60
2019,10,31,03,51,1.60
2019,10,31,03,52,1.70
2019,10,31,03,53,1.70
2019,10,31,03,54,1.70
2019,10,31,03,55,1.70
2019,10,31,03,56,1.70
2019,10,31,03,57,1.70
2019,10,31,03,58,1.70
2019,10,31,03,59,1.70
2019,10,31,04,00,1.70
2019,10,31,04,01,1.70
2019,10,31,04,02,1.70
2019,10,31,04,03,1.70
2019,10,31,04,04,1.70
2019,10,31,04,05,1.70
2019,10,31,04,06,1.70
2019,10,31,04,07,1.70
2019,10,31,04,08,1.70
2019,10,31,04,09,1.70
2019,10,31,04,10,1.70
2019,10,31,04,11,1.70
2019,10,31,04,12,1.70
2019,10,31,04,13,1.70
2019,10,31,04,14,1.70
2019,10,31,04,15,1.70
2019,10,31,04,16,1.70
2019,10,31,04,17,1.70
2019,10,31,04,18,1.80
2019,10,31,04,19,1.80
2019,10,31,04,20,1.80
2019,10,31,04,21,1.80
2019,10,31,04,22,1.80
2019,10,31,04,23,1.80
2019,10,31,04,24,1.80
2019,10,31,04,25,1.80
2019,10,31,04,26,1.80
2019,10,31,04,27,1.80
2019,10,31,04,28,1.80
2019,10,31,04,29,1.80
2019,10,31,04,30,1.80
2019,10,31,04,31,1.80
2019,10,31,04,32,1.80
2019,10,31,04,33,1.80
2019,10,31,04,34,1.90
2019,10,31,04,35,1.90
2019,10,31,04,36,1.90
2019,10,31,04,37,1.90
2019,10,31,04,38,1.90
2019,10,31,04,39,1.90
2019,10,31,04,40,1.90
2019,10,31,04,41,1.90
2019,10,31,04,42,1.90
2019,10,31,04,43,1.90
2019,10,31,04,44,1.90
2019,10,31,04,45,1.80
2019,10,31,04,46,1.90
2019,10,31,04,47,1.90
2019,10,31,04,48,1.90
2019,10,31,04,49,1.90
2019,10,31,04,50,1.90
2019,10,31,04,51,1.90
2019,10,31,04,52,1.90
2019,10,31,04,53,1.90
2019,10,31,04,54,1.90
2019,10,31,04,55,1.90
2019,10,31,04,56,2.00
2019,10,31,04,57,2.00
2019,10,31,04,58,2.00
2019,10,31,04,59,2.00
2019,10,31,05,00,2.00
2019,10,31,05,01,2.00
2019,10,31,05,02,2.00
2019,10,31,05,03,2.00
2019,10,31,05,04,2.00
2019,10,31,05,05,2.00
2019,10,31,05,06,2.00
2019,10,31,05,07,2.00
2019,10,31,05,08,2.00
2019,10,31,05,09,2.00
2019,10,31,05,10,2.00
2019,10,31,05,11,2.00
2019,10,31,05,12,2.00
2019,10,31,05,13,2.00
2019,10,31,05,14,1.90
2019,10,31,05,15,1.90
2019,10,31,05,16,2.00
2019,10,31,05,17,2.00
2019,10,31,05,18,2.00
2019,10,31,05,19,2.00
2019,10,31,05,20,2.00
2019,10,31,05,21,2.00
2019,10,31,05,22,1.90
2019,10,31,05,23,1.90
2019,10,31,05,24,1.90
2019,10,31,05,25,1.90
2019,10,31,05,26,1.90
2019,10,31,05,27,1.90
2019,10,31,05,28,1.90
2019,10,31,05,29,1.90
2019,10,31,05,30,1.90
2019,10,31,05,31,1.90
2019,10,31,05,32,1.90
2019,10,31,08,39,1.70
2019,10,31,08,40,1.70
2019,10,31,08,41,1.70
2019,10,31,08,42,1.70
2019,10,31,08,43,1.70
2019,10,31,08,44,1.70
2019,10,31,08,45,1.80
2019,10,31,08,46,1.80
2019,10,31,08,47,1.80
2019,10,31,08,48,1.90
2019,10,31,08,49,1.90
2019,10,31,08,50,1.90
2019,10,31,08,51,2.00
2019,10,31,08,52,2.10
2019,10,31,08,53,2.10
2019,10,31,08,54,2.10
2019,10,31,08,55,2.20
2019,10,31,08,56,2.20
2019,10,31,08,57,2.20
2019,10,31,08,58,2.20
2019,10,31,08,59,2.20
2019,10,31,09,00,2.20
2019,10,31,09,01,2.20
2019,10,31,09,02,2.20
2019,10,31,09,03,2.20
2019,10,31,09,04,2.20
2019,10,31,09,05,2.20
2019,10,31,09,06,2.20
2019,10,31,09,07,2.20
2019,10,31,09,08,2.20
2019,10,31,09,09,2.20
2019,10,31,09,10,2.20
2019,10,31,09,11,2.20
2019,10,31,09,12,2.20
2019,10,31,09,13,2.20
2019,10,31,09,14,2.30
2019,10,31,09,15,2.30
2019,10,31,09,16,2.30
2019,10,31,09,17,2.30
2019,10,31,09,18,2.30
2019,10,31,09,19,2.30
2019,10,31,09,20,2.30
2019,10,31,09,21,2.40
2019,10,31,09,22,2.40
2019,10,31,09,23,2.40
2019,10,31,09,24,2.50
2019,10,31,09,25,2.50
2019,10,31,09,26,2.50
2019,10,31,09,27,2.60
2019,10,31,09,28,2.60
2019,10,31,09,29,2.70
2019,10,31,09,30,2.70
2019,10,31,09,31,2.80
2019,10,31,09,32,2.80
2019,10,31,09,33,2.90
2019,10,31,09,34,2.90
2019,10,31,09,35,3.00
2019,10,31,09,36,3.00
2019,10,31,09,37,3.10
2019,10,31,09,38,3.10
2019,10,31,09,39,3.20
2019,10,31,09,40,3.20
2019,10,31,09,41,3.20
2019,10,31,09,42,3.30
2019,10,31,09,43,3.30
2019,10,31,09,44,3.40
2019,10,31,09,45,3.40
2019,10,31,09,46,3.40
2019,10,31,09,47,3.50
2019,10,31,09,48,3.50
2019,10,31,09,49,3.60
2019,10,31,09,50,3.60
2019,10,31,09,51,3.70
2019,10,31,09,52,3.70
2019,10,31,09,53,3.70
2019,10,31,09,54,3.80
2019,10,31,09,55,3.80
2019,10,31,09,56,3.90
2019,10,31,09,57,4.00
2019,10,31,09,58,4.00
2019,10,31,09,59,4.10
2019,10,31,10,00,4.20
2019,10,31,10,01,4.20
2019,10,31,10,02,4.30
2019,10,31,10,03,4.40
2019,10,31,10,04,4.50
2019,10,31,10,05,4.50
2019,10,31,10,06,4.60
2019,10,31,10,07,4.70
2019,10,31,10,08,4.80
2019,10,31,10,09,4.90
2019,10,31,10,10,5.00
2019,10,31,10,11,5.00
2019,10,31,10,12,5.10
2019,10,31,10,13,5.20
2019,10,31,10,14,5.20
2019,10,31,10,15,5.30
2019,10,31,10,16,5.40
2019,10,31,10,17,5.40
2019,10,31,10,18,5.50
2019,10,31,10,19,5.50
2019,10,31,10,20,5.60
2019,10,31,10,21,5.70
2019,10,31,10,22,5.70
2019,10,31,10,23,5.80
2019,10,31,10,24,5.90
2019,10,31,10,25,5.90
2019,10,31,10,26,6.00
2019,10,31,10,27,6.10
2019,10,31,10,28,6.10
2019,10,31,10,29,6.20
2019,10,31,10,30,6.30
2019,10,31,10,31,6.30
2019,10,31,10,32,6.40
2019,10,31,10,33,6.50
2019,10,31,10,34,6.60
2019,10,31,10,35,6.60
2019,10,31,10,36,6.70
2019,10,31,10,37,6.80
2019,10,31,10,38,6.80
2019,10,31,10,39,6.90
2019,10,31,10,40,7.00
2019,10,31,10,41,7.00
2019,10,31,10,42,7.10
2019,10,31,10,43,7.10
2019,10,31,10,44,7.20
2019,10,31,10,45,7.20
2019,10,31,10,46,7.30
2019,10,31,10,47,7.30
2019,10,31,10,48,7.40
2019,10,31,10,49,7.40
2019,10,31,10,50,7.50
2019,10,31,10,51,7.50
2019,10,31,10,52,7.60
2019,10,31,10,53,7.70
2019,10,31,10,54,7.70
2019,10,31,10,55,7.80
2019,10,31,10,56,7.80
2019,10,31,10,57,7.80
2019,10,31,10,58,7.90
2019,10,31,10,59,7.90
2019,10,31,11,00,8.00
2019,10,31,11,01,8.10
2019,10,31,11,02,8.10
2019,10,31,11,03,8.20
2019,10,31,11,04,8.20
2019,10,31,11,05,8.30
2019,10,31,11,06,8.30
2019,10,31,11,07,8.30
2019,10,31,11,08,8.40
2019,10,31,11,09,8.50
2019,10,31,11,10,8.60
2019,10,31,11,11,8.60
2019,10,31,11,12,8.70
2019,10,31,11,13,8.80
2019,10,31,11,14,8.90
2019,10,31,11,15,8.90
2019,10,31,11,16,9.00
2019,10,31,11,17,9.00
2019,10,31,11,18,9.00
2019,10,31,11,19,9.00
2019,10,31,11,20,9.00
2019,10,31,11,21,9.00
2019,10,31,11,22,9.00
2019,10,31,11,23,9.10
2019,10,31,11,24,9.10
2019,10,31,11,25,9.10
2019,10,31,11,26,9.20
2019,10,31,11,27,9.30
2019,10,31,11,28,9.40
2019,10,31,11,29,9.40
2019,10,31,11,30,9.50
2019,10,31,11,31,9.50
2019,10,31,11,32,9.50
2019,10,31,11,33,9.50
2019,10,31,11,34,9.60
2019,10,31,11,35,9.60
2019,10,31,11,36,9.60
2019,10,31,11,37,9.70
2019,10,31,11,38,9.70
2019,10,31,11,39,9.80
2019,10,31,11,40,9.80
2019,10,31,11,41,9.80
2019,10,31,11,42,9.80
2019,10,31,11,43,9.80
2019,10,31,11,44,9.80
2019,10,31,11,45,9.80
2019,10,31,11,46,9.90
2019,10,31,11,47,9.90
2019,10,31,11,48,9.90
2019,10,31,11,49,10.00
2019,10,31,11,50,10.10
2019,10,31,11,51,10.10
2019,10,31,11,52,10.20
2019,10,31,11,53,10.20
2019,10,31,11,54,10.20
2019,10,31,11,55,10.20
2019,10,31,11,56,10.20
2019,10,31,11,57,10.10
2019,10,31,11,58,10.10
2019,10,31,11,59,10.10
2019,10,31,12,00,10.10
2019,10,31,12,01,10.10
2019,10,31,12,02,10.10
2019,10,31,12,03,10.10
2019,10,31,12,04,10.10
2019,10,31,12,05,10.10
2019,10,31,12,06,10.10
2019,10,31,12,07,10.10
2019,10,31,12,08,10.20
2019,10,31,12,09,10.20
2019,10,31,12,10,10.20
2019,10,31,12,11,10.20
2019,10,31,12,12,10.20
2019,10,31,12,13,10.20
2019,10,31,12,14,10.20
2019,10,31,12,15,10.20
2019,10,31,12,16,10.20
2019,10,31,12,17,10.20
2019,10,31,12,18,10.20
2019,10,31,12,19,10.20
2019,10,31,12,20,10.30
2019,10,31,12,21,10.30
2019,10,31,12,22,10.30
2019,10,31,12,23,10.30
2019,10,31,12,24,10.30
2019,10,31,12,25,10.30
2019,10,31,12,26,10.40
2019,10,31,12,27,10.40
2019,10,31,12,28,10.40
2019,10,31,12,29,10.50
2019,10,31,12,30,10.50
2019,10,31,12,31,10.50
2019,10,31,12,32,10.60
2019,10,31,12,33,10.60
2019,10,31,12,34,10.60
2019,10,31,12,35,10.60
2019,10,31,12,36,10.70
2019,10,31,12,37,10.70
2019,10,31,12,38,10.70
2019,10,31,12,39,10.70
2019,10,31,12,40,10.70
2019,10,31,12,41,10.70
2019,10,31,12,42,10.70
2019,10,31,12,43,10.70
2019,10,31,12,44,10.70
2019,10,31,12,45,10.70
2019,10,31,12,46,10.80
2019,10,31,12,47,10.80
2019,10,31,12,48,10.80
2019,10,31,12,49,10.80
2019,10,31,12,50,10.80
2019,10,31,12,51,10.80
2019,10,31,12,52,10.80
2019,10,31,12,53,10.80
2019,10,31,12,54,10.80
2019,10,31,12,55,10.90
2019,10,31,12,56,10.90
2019,10,31,12,57,11.00
2019,10,31,12,58,11.00
2019,10,31,12,59,11.10
2019,10,31,13,00,11.20
2019,10,31,13,01,11.20
2019,10,31,13,02,11.20
2019,10,31,13,03,11.20
2019,10,31,13,04,11.20
2019,10,31,13,05,11.10
2019,10,31,13,06,11.00
2019,10,31,13,07,11.00
2019,10,31,13,08,10.90
2019,10,31,13,09,10.90
2019,10,31,13,10,10.80
2019,10,31,13,11,10.80
2019,10,31,13,12,10.80
2019,10,31,13,13,10.80
2019,10,31,13,14,10.80
2019,10,31,13,15,10.80
2019,10,31,13,16,10.80
2019,10,31,13,17,10.80
2019,10,31,13,18,10.80
2019,10,31,13,19,10.90
2019,10,31,13,20,10.90
2019,10,31,13,21,10.90
2019,10,31,13,22,10.90
2019,10,31,13,23,10.90
2019,10,31,13,24,10.90
2019,10,31,13,25,10.90
2019,10,31,13,26,10.80
2019,10,31,13,27,10.80
2019,10,31,13,28,10.70
2019,10,31,13,29,10.70
2019,10,31,13,30,10.70
2019,10,31,13,31,10.70
2019,10,31,13,32,10.80
2019,10,31,13,33,10.80
2019,10,31,13,34,10.80
2019,10,31,13,35,10.80
2019,10,31,13,36,10.70
2019,10,31,13,37,10.70
2019,10,31,13,38,10.70
2019,10,31,13,39,10.60
2019,10,31,13,40,10.60
2019,10,31,13,41,10.60
2019,10,31,13,42,10.60
2019,10,31,13,43,10.70
2019,10,31,13,44,10.70
2019,10,31,13,45,10.70
2019,10,31,13,46,10.80
2019,10,31,13,47,10.90
2019,10,31,13,48,10.90
2019,10,31,13,49,10.90
2019,10,31,13,50,10.90
2019,10,31,13,51,10.90
2019,10,31,13,52,10.90
2019,10,31,13,53,10.90
2019,10,31,13,54,10.90
2019,10,31,13,55,10.90
2019,10,31,13,56,10.90
2019,10,31,13,57,10.90
2019,10,31,13,58,10.90
2019,10,31,13,59,10.90
2019,10,31,14,00,10.90
2019,10,31,14,01,10.90
2019,10,31,14,02,10.90
2019,10,31,14,03,10.90
2019,10,31,14,04,10.90
2019,10,31,14,05,11.00
2019,10,31,14,06,11.00
2019,10,31,14,07,11.00
2019,10,31,14,08,11.00
2019,10,31,14,09,11.00
2019,10,31,14,10,11.00
2019,10,31,14,11,11.10
2019,10,31,14,12,11.00
2019,10,31,14,13,11.10
2019,10,31,14,14,11.10
2019,10,31,14,15,11.10
2019,10,31,14,16,11.10
2019,10,31,14,17,11.10
2019,10,31,14,18,11.10
2019,10,31,14,19,11.10
2019,10,31,14,20,11.10
2019,10,31,14,21,11.10
2019,10,31,14,22,11.10
2019,10,31,14,23,11.10
2019,10,31,14,24,11.10
2019,10,31,14,25,11.10
2019,10,31,14,26,11.00
2019,10,31,14,27,11.00
2019,10,31,14,28,11.00
2019,10,31,14,29,11.00
2019,10,31,14,30,10.90
2019,10,31,14,31,10.90
2019,10,31,14,32,10.90
2019,10,31,14,33,10.90
2019,10,31,14,34,10.90
2019,10,31,14,35,11.00
2019,10,31,14,36,11.00
2019,10,31,14,37,11.00
2019,10,31,14,38,11.00
2019,10,31,14,39,11.00
2019,10,31,14,40,11.00
2019,10,31,14,41,11.00
2019,10,31,14,42,11.10
2019,10,31,14,43,11.10
2019,10,31,14,44,11.20
2019,10,31,14,45,11.20
2019,10,31,14,46,11.20
2019,10,31,14,47,11.20
2019,10,31,14,48,11.20
2019,10,31,14,49,11.20
2019,10,31,14,50,11.20
2019,10,31,14,51,11.30
2019,10,31,14,52,11.30
2019,10,31,14,53,11.30
2019,10,31,14,54,11.20
2019,10,31,14,55,11.20
2019,10,31,14,56,11.20
2019,10,31,14,57,11.20
2019,10,31,14,58,11.20
2019,10,31,14,59,11.20
2019,10,31,15,00,11.20
2019,10,31,15,01,11.20
2019,10,31,15,02,11.20
2019,10,31,15,03,11.20
2019,10,31,15,04,11.10
2019,10,31,15,05,11.10
2019,10,31,15,06,11.10
2019,10,31,15,07,11.00
2019,10,31,15,08,11.00
2019,10,31,15,09,11.00
2019,10,31,15,10,11.00
2019,10,31,15,11,11.00
2019,10,31,15,12,10.90
2019,10,31,15,13,10.90
2019,10,31,15,14,10.90
2019,10,31,15,15,10.90
2019,10,31,15,16,10.90
2019,10,31,15,17,10.90
2019,10,31,15,18,10.80
2019,10,31,15,19,10.80
2019,10,31,15,20,10.80
2019,10,31,15,21,10.70
2019,10,31,15,22,10.70
2019,10,31,15,23,10.70
2019,10,31,15,24,10.70
2019,10,31,15,25,10.70
2019,10,31,15,26,10.70
2019,10,31,15,27,10.80
2019,10,31,15,28,10.80
2019,10,31,15,29,10.80
2019,10,31,15,30,10.80
2019,10,31,15,31,10.80
2019,10,31,15,32,10.80
2019,10,31,15,33,10.90
2019,10,31,15,34,10.90
2019,10,31,15,35,10.90
2019,10,31,15,36,10.90
2019,10,31,15,37,10.90
2019,10,31,15,38,11.00
2019,10,31,15,39,11.00
2019,10,31,15,40,11.00
2019,10,31,15,41,11.00
2019,10,31,15,42,11.10
2019,10,31,15,43,11.10
2019,10,31,15,44,11.10
2019,10,31,15,45,11.10
2019,10,31,15,46,11.10
2019,10,31,15,47,11.10
2019,10,31,15,48,11.10
2019,10,31,15,49,11.10
2019,10,31,15,50,11.10
2019,10,31,15,51,11.10
2019,10,31,15,52,11.10
2019,10,31,15,53,11.00
2019,10,31,15,54,11.00
2019,10,31,15,55,11.10
2019,10,31,15,56,11.00
2019,10,31,15,57,11.00
2019,10,31,15,58,10.90
2019,10,31,15,59,11.00
2019,10,31,16,00,11.00
2019,10,31,16,01,11.10
2019,10,31,16,02,11.10
2019,10,31,16,03,11.10
2019,10,31,16,04,11.10
2019,10,31,16,05,11.10
2019,10,31,16,06,11.10
2019,10,31,16,07,11.00
2019,10,31,16,08,10.90
2019,10,31,16,09,10.80
2019,10,31,16,10,10.70
2019,10,31,16,11,10.70
2019,10,31,16,12,10.70
2019,10,31,16,13,10.70
2019,10,31,16,14,10.70
2019,10,31,16,15,10.70
2019,10,31,16,16,10.60
2019,10,31,16,17,10.60
2019,10,31,16,18,10.60
2019,10,31,16,19,10.60
2019,10,31,16,20,10.60
2019,10,31,16,21,10.60
2019,10,31,16,22,10.50
2019,10,31,16,23,10.50
2019,10,31,16,24,10.50
2019,10,31,16,25,10.40
2019,10,31,16,26,10.40
2019,10,31,16,27,10.40
2019,10,31,16,28,10.40
2019,10,31,16,29,10.40
2019,10,31,16,30,10.40
2019,10,31,16,31,10.40
2019,10,31,16,32,10.30
2019,10,31,16,33,10.30
2019,10,31,16,34,10.30
2019,10,31,16,35,10.30
2019,10,31,16,36,10.20
2019,10,31,16,37,10.20
2019,10,31,16,38,10.20
2019,10,31,16,39,10.20
2019,10,31,16,40,10.20
2019,10,31,16,41,10.10
2019,10,31,16,42,10.10
2019,10,31,16,43,10.10
2019,10,31,16,44,10.10
2019,10,31,16,45,10.00
2019,10,31,16,46,10.00
2019,10,31,16,47,10.00
2019,10,31,16,48,9.90
2019,10,31,16,49,9.90
2019,10,31,16,50,10.00
2019,10,31,16,51,10.00
2019,10,31,16,52,10.00
2019,10,31,16,53,10.00
2019,10,31,16,54,10.00
2019,10,31,16,55,10.00
2019,10,31,16,56,10.00
2019,10,31,16,57,10.00
2019,10,31,16,58,9.90
2019,10,31,16,59,9.90
2019,10,31,17,00,9.80
2019,10,31,17,01,9.80
2019,10,31,17,02,9.70
2019,10,31,17,03,9.70
2019,10,31,17,04,9.70
2019,10,31,17,05,9.70
2019,10,31,17,06,9.60
2019,10,31,17,07,9.60
2019,10,31,17,08,9.60
2019,10,31,17,09,9.60
2019,10,31,17,10,9.60
2019,10,31,17,11,9.60
2019,10,31,17,12,9.60
2019,10,31,17,13,9.50
2019,10,31,17,14,9.50
2019,10,31,17,15,9.50
2019,10,31,17,16,9.40
2019,10,31,17,17,9.40
2019,10,31,17,18,9.40
2019,10,31,17,19,9.40
2019,10,31,17,20,9.30
2019,10,31,17,21,9.30
2019,10,31,17,22,9.30
2019,10,31,17,23,9.30
2019,10,31,17,24,9.30
2019,10,31,17,25,9.20
2019,10,31,17,26,9.20
2019,10,31,17,27,9.20
2019,10,31,17,28,9.20
2019,10,31,17,29,9.10
2019,10,31,17,30,9.10
2019,10,31,17,31,9.10
2019,10,31,17,32,9.00
2019,10,31,17,33,9.00
2019,10,31,17,34,8.90
2019,10,31,17,35,8.90
2019,10,31,17,36,8.90
2019,10,31,17,37,8.80
2019,10,31,17,38,8.80
2019,10,31,17,39,8.80
2019,10,31,17,40,8.80
2019,10,31,17,41,8.80
2019,10,31,17,42,8.70
2019,10,31,17,43,8.70
2019,10,31,17,44,8.70
2019,10,31,17,45,8.70
2019,10,31,17,46,8.70
2019,10,31,17,47,8.60
2019,10,31,17,48,8.60
2019,10,31,17,49,8.60
2019,10,31,17,50,8.60
2019,10,31,17,51,8.60
2019,10,31,17,52,8.60
2019,10,31,17,53,8.60
2019,10,31,17,54,8.50
2019,10,31,17,55,8.50
2019,10,31,17,56,8.50
2019,10,31,17,57,8.50
2019,10,31,17,58,8.50
2019,10,31,17,59,8.50
2019,10,31,18,00,8.40
2019,10,31,18,01,8.40
2019,10,31,18,02,8.40
2019,10,31,18,03,8.40
2019,10,31,18,04,8.40
2019,10,31,18,05,8.40
2019,10,31,18,06,8.40
2019,10,31,18,07,8.40
2019,10,31,18,08,8.40
2019,10,31,18,09,8.30
2019,10,31,18,10,8.30
2019,10,31,18,11,8.30
2019,10,31,18,12,8.30
2019,10,31,18,13,8.30
2019,10,31,18,14,8.30
2019,10,31,18,15,8.20
2019,10,31,18,16,8.20
2019,10,31,18,17,8.20
2019,10,31,18,18,8.20
2019,10,31,18,19,8.20
2019,10,31,18,20,8.10
2019,10,31,18,21,8.10
2019,10,31,18,22,8.10
2019,10,31,18,23,8.00
2019,10,31,18,24,8.00
2019,10,31,18,25,7.90
2019,10,31,18,26,7.90
2019,10,31,18,27,7.90
2019,10,31,18,28,7.80
2019,10,31,18,29,7.80
2019,10,31,18,30,7.80
2019,10,31,18,31,7.70
2019,10,31,18,32,7.70
2019,10,31,18,33,7.70
2019,10,31,18,34,7.70
2019,10,31,18,35,7.70
2019,10,31,18,36,7.60
2019,10,31,18,37,7.60
2019,10,31,18,38,7.60
2019,10,31,18,39,7.60
2019,10,31,18,40,7.50
2019,10,31,18,41,7.50
2019,10,31,18,42,7.50
2019,10,31,18,43,7.50
2019,10,31,18,44,7.40
2019,10,31,18,45,7.40
2019,10,31,18,46,7.40
2019,10,31,18,47,7.30
2019,10,31,18,48,7.30
2019,10,31,18,49,7.20
2019,10,31,18,50,7.20
2019,10,31,18,51,7.10
2019,10,31,18,52,7.00
2019,10,31,18,53,7.00
2019,10,31,18,54,6.90
2019,10,31,18,55,6.90
2019,10,31,18,56,6.80
2019,10,31,18,57,6.80
2019,10,31,18,58,6.80
2019,10,31,18,59,6.80
2019,10,31,19,00,6.80
2019,10,31,19,01,6.80
2019,10,31,19,02,6.80
2019,10,31,19,03,6.70
2019,10,31,19,04,6.70
2019,10,31,19,05,6.70
2019,10,31,19,06,6.70
2019,10,31,19,07,6.70
2019,10,31,19,08,6.60
2019,10,31,19,09,6.60
2019,10,31,19,10,6.60
2019,10,31,19,11,6.60
2019,10,31,19,12,6.60
2019,10,31,19,13,6.60
2019,10,31,19,14,6.60
2019,10,31,19,15,6.50
2019,10,31,19,16,6.50
2019,10,31,19,17,6.50
2019,10,31,19,18,6.40
2019,10,31,19,19,6.40
2019,10,31,19,20,6.30
2019,10,31,19,21,6.30
2019,10,31,19,22,6.20
2019,10,31,19,23,6.20
2019,10,31,19,24,6.10
2019,10,31,19,25,6.10
2019,10,31,19,26,6.00
2019,10,31,19,27,6.00
2019,10,31,19,28,5.90
2019,10,31,19,29,5.90
2019,10,31,19,30,5.90
2019,10,31,19,31,5.90
2019,10,31,19,32,5.90
2019,10,31,19,33,5.90
2019,10,31,19,34,5.90
2019,10,31,19,35,5.80
2019,10,31,19,36,5.80
2019,10,31,19,37,5.80
2019,10,31,19,38,5.80
2019,10,31,19,39,5.80
2019,10,31,19,40,5.70
2019,10,31,19,41,5.70
2019,10,31,19,42,5.70
2019,10,31,19,43,5.70
2019,10,31,19,44,5.60
2019,10,31,19,45,5.60
2019,10,31,19,46,5.60
2019,10,31,19,47,5.50
2019,10,31,19,48,5.50
2019,10,31,19,49,5.40
2019,10,31,19,50,5.40
2019,10,31,19,51,5.40
2019,10,31,19,52,5.40
2019,10,31,19,53,5.40
2019,10,31,19,54,5.40
2019,10,31,19,55,5.40
2019,10,31,19,56,5.40
2019,10,31,19,57,5.40
2019,10,31,19,58,5.40
2019,10,31,19,59,5.30
2019,10,31,20,00,5.30
2019,10,31,20,01,5.30
2019,10,31,20,02,5.30
2019,10,31,20,03,5.30
2019,10,31,20,04,5.30
2019,10,31,20,05,5.30
2019,10,31,20,06,5.20
2019,10,31,20,07,5.20
2019,10,31,20,08,5.20
2019,10,31,20,09,5.20
2019,10,31,20,10,5.20
2019,10,31,20,11,5.20
2019,10,31,20,12,5.20
2019,10,31,20,13,5.20
2019,10,31,20,14,5.20
2019,10,31,20,15,5.20
2019,10,31,20,16,5.20
2019,10,31,20,17,5.20
2019,10,31,20,18,5.20
2019,10,31,20,19,5.20
2019,10,31,20,20,5.20
2019,10,31,20,21,5.20
2019,10,31,20,22,5.10
2019,10,31,20,23,5.10
2019,10,31,20,24,5.10
2019,10,31,20,25,5.10
2019,10,31,20,26,5.00
2019,10,31,20,27,5.00
2019,10,31,20,28,5.00
2019,10,31,20,29,4.90
2019,10,31,20,30,4.90
2019,10,31,20,31,4.90
2019,10,31,20,32,4.90
2019,10,31,20,33,4.90
2019,10,31,20,34,4.90
2019,10,31,20,35,4.90
2019,10,31,20,36,4.80
2019,10,31,20,37,4.80
2019,10,31,20,38,4.80
2019,10,31,20,39,4.80
2019,10,31,20,40,4.80
2019,10,31,20,41,4.80
2019,10,31,20,42,4.80
2019,10,31,20,43,4.80
2019,10,31,20,44,4.80
2019,10,31,20,45,4.80
2019,10,31,20,46,4.70
2019,10,31,20,47,4.70
2019,10,31,20,48,4.70
2019,10,31,20,49,4.70
2019,10,31,20,50,4.70
2019,10,31,20,51,4.70
2019,10,31,20,52,4.70
2019,10,31,20,53,4.60
2019,10,31,20,54,4.60
2019,10,31,20,55,4.60
2019,10,31,20,56,4.50
2019,10,31,20,57,4.50
2019,10,31,20,58,4.50